Regional Weather Roundup
Issued by NWS

Home | Current Version | Previous Version | Text Only | Print | Product List | Glossary Off
Versions: 1 2 3 4 5 6 7 8 9 10 11 12 13 14 15 16 17 18 19 20 21 22 23 24 25 26 27 28 29 30 31 32 33 34 35 36 37 38 39 40 41 42 43 44 45 46 47 48 49 50

000
ASUS43 KDTX 310810
RWRMI
MICHIGAN HOURLY REGIONAL WEATHER ROUNDUP
NATIONAL WEATHER SERVICE DETROIT/PONTIAC MI
400 AM EDT TUE MAY 31 2016

NOTE: "FAIR" INDICATES FEW OR NO CLOUDS BELOW 12,000 FEET WITH NO
SIGNIFICANT WEATHER AND/OR OBSTRUCTION TO VISIBILITY.

MIZ047>049-052>055-059>063-066>070-074>076-081>083-310900-
SOUTHEAST LOWER MICHIGAN

CITY           SKY/WX    TMP DP  RH WIND       PRES   REMARKS
ADRIAN         CLEAR     59  53  80 N6        30.00S
ALMA           CLEAR     49  49  97 CALM      30.03R
ANN ARBOR      CLEAR     56  50  80 N3        30.00R
BAD AXE        CLEAR     50  49  95 CALM      30.01R
CARO           CLEAR     49  48  96 CALM      30.00S
DETROIT CITY   CLEAR     67  50  54 N6        29.98R
DETROIT        PTCLDY    64  52  64 N5        29.99R
FLINT          CLEAR     56  50  80 CALM      30.01R
GROSSE ILE     CLEAR     63  55  77 CALM      29.97R
HILLSDALE      CLEAR     58  53  86 CALM      30.02S
HOWELL         CLEAR     56  52  87 CALM      30.01R

CITY           SKY/WX    TMP DP  RH WIND       PRES   REMARKS
JACKSON        CLEAR     57  53  86 CALM      30.02R
LAMBERTVILLE   CLEAR     58  53  85 CALM      29.99R
LANSING        CLEAR     56  53  90 CALM      30.02R
LAPEER         FAIR      54  53  95 CALM      30.01R
MASON          CLEAR     55  53  91 CALM      30.02R
MONROE         PTCLDY    62  54  74 N3        29.98R
PONTIAC        CLEAR     62  49  62 CALM      29.99S
PORT HOPE        N/A     56  54  93 VRB3      29.99R
PORT HURON     CLEAR     57  55  94 CALM      29.99S
TRI CITIES     CLEAR     58  49  72 CALM      30.02R
MIDLAND        FAIR      50  49  98 CALM      30.01S
TROY           CLEAR     67  49  53 N3        30.01R
SAGINAW HB     CLEAR     55  48  76 CALM      30.01R
$$
MIZ043>046-050>051-056>058-064>065-071>073-077>080-310900-
SOUTHWEST LOWER MICHIGAN

CITY           SKY/WX    TMP DP  RH WIND       PRES   REMARKS
BATTLE CREEK   CLOUDY    58  54  86 CALM      30.02S
BENTON HARBOR  CLOUDY    58  55  90 CALM      30.00S
BIG RAPIDS     CLEAR     51  50  96 CALM      30.02R
COLDWATER      CLEAR     56  56  99 CALM      30.02R
FREMONT        FAIR      54  54 100 CALM      30.01S
HOLLAND        CLEAR     56  53  90 CALM      30.02R
GRAND RAPIDS   CLEAR     58  53  84 SE3       30.02S
IONIA          FAIR      57  51  82 CALM      30.02R
KALAMAZOO      CLOUDY    60  55  83 CALM      30.02R
LUDINGTON      FOG       51  51 100 CALM      30.02R VSB 3/4
MARSHALL       CLEAR     55  54  94 CALM      30.02R
MOUNT PLEASANT CLEAR     52  51  96 CALM      30.01S FOG
MUSKEGON         N/A     60  55  83 CALM      30.01S
SOUTH HAVEN    CLOUDY    55  54  96 CALM      30.01S
$$
MIZ016>042-310900-
NORTHERN LOWER MICHIGAN

CITY           SKY/WX    TMP DP  RH WIND       PRES   REMARKS
ALPENA         CLEAR     54  50  86 CALM      30.02R
BEAVER ISLAND  PTCLDY    50  46  87 N7        30.05S
BELLAIRE       CLEAR     50  49  95 CALM      30.05R
CADILLAC       CLEAR     50  47  88 CALM      30.03S
CHARLEVOIX     CLEAR     54  49  85 N5        30.07R
FRANKFORT      CLOUDY    52  51  96 CALM      30.02S
GAYLORD        CLEAR     52  47  83 W3        30.04R
GRAYLING       CLEAR     48  47  98 CALM      30.04S
HARBOR SPRINGS CLEAR     52  49  89 CALM      30.03R
HOUGHTON LAKE  CLEAR     50  49  96 CALM      30.04R
OSCODA         CLEAR     52  47  83 CALM      30.01R
PELLSTON       CLEAR     50  46  86 NW6       30.03S
ROGERS CITY    CLEAR     53  48  85 W3        30.02F
TRAVERSE CITY  CLEAR     54  51  90 CALM      30.02S
$$
MIZ007>008-015-310900-
EASTERN UPPER MICHIGAN

CITY           SKY/WX    TMP DP  RH WIND       PRES   REMARKS
KINROSS          N/A     46  46 100 NW8       30.03R
MACKINAC ISLAN CLEAR     50  46  83 W7        30.03S
NEWBERRY       CLEAR     44  42  95 N9        30.05S
S. S. MARIE    MOCLDY    47  44  90 NW7       30.03R
MUNISING         N/A     47  43  86 NW8       30.07S
$$
MIZ004>006-011>014-085-310900-
CENTRAL UPPER MICHIGAN

CITY           SKY/WX    TMP DP  RH WIND       PRES   REMARKS
MANISTIQUE     CLOUDY    46  43  90 N8        30.05S
ESCANABA       PTCLDY    48  43  81 N6        30.06R
MENOMINEE      CLOUDY    53  46  77 NE5       30.06R
SAWYER-GWINN   CLOUDY    43  40  88 NE10      30.08S
$$
MIZ001>003-009>011-084-310900-
WESTERN UPPER MICHIGAN

CITY           SKY/WX    TMP DP  RH WIND       PRES   REMARKS
IRON MOUNTAIN  CLOUDY    49  43  80 N7        30.06R
HOUGHTON       PTCLDY    44  39  82 E7        30.08F
COPPER HARBOR    N/A     44  40  85 SE6       30.11S
IRONWOOD       CLOUDY    54  48  82 E13       29.99S
$$

ABBREVIATIONS USED IN REMARKS
   TC - TEMPERATURE IN CELSIUS
  WCI - WIND CHILL INDEX
   HX - HEAT INDEX
  VSB - VISIBILITY




USA.gov is the U.S. government's official web portal to all federal, state and local government web resources and services.